Alexandria, LA

6:48 PM CDT on May 26, 2017 (GMT -0500)
Alexandria International

Weather History for KAEX - October, 2014

Change the Weather History Date:

Saturday, October 11, 2014

  Actual Average Record
Temperature  
Mean Temperature 80 °F 69 °F  
Max Temperature 89 °F 81 °F 93 °F (1963)
Min Temperature 70 °F 57 °F 38 °F (1906)
Degree Days  
Heating Degree Days 0 1  
Month to date heating degree days 2 11  
Since 1 July heating degree days 2 14  
Cooling Degree Days 15 5  
Month to date cooling degree days 107 67  
Year to date cooling degree days 2416 2417  
Growing Degree Days 29 (Base 50)    
Moisture  
Dew Point 71 °F    
Average Humidity 75    
Maximum Humidity 100    
Minimum Humidity 50    
Precipitation  
Precipitation 1.14 in 0.18 in 2.37 in (2001)
Month to date precipitation 2.14 2.19  
Year to date precipitation 34.36 41.32  
Snow  
Snow 0.00 in - 0.00 in ()
Month to date snowfall 0.0  
Since 1 July snowfall 0.0  
Since 1 September snowfall 0.0  
Snow Depth 0.00 in    
Sea Level Pressure  
Sea Level Pressure 29.98 in    
Wind  
Wind Speed 4 mph (West)    
Max Wind Speed 24 mph    
Max Gust Speed 29 mph    
Visibility 6 miles    
Events Fog , Rain , Thunderstorm    
T = Trace of Precipitation, MM = Missing Value Source: NWS Daily Summary

Daily Weather History Graph

Daily Weather History Graph

Search for Another Location

Airport or City:

Trip Planner

Search our weather history database for the weather conditions in past years. The results will help you decide how hot, cold, wet, or windy it might be!

Date:

Astronomy

Oct. 11, 2014 Rise Set
Actual Time 7:10 AM CDT 6:42 PM CDT
Civil Twilight 6:46 AM CDT 7:07 PM CDT
Nautical Twilight 6:17 AM CDT 7:35 PM CDT
Astronomical Twilight 5:49 AM CDT 8:03 PM CDT
Moon 9:22 PM CDT (10/11) 10:23 AM CDT (10/11)
Length of Visible Light 12h 21m
Length of Day
11h 32m
Waning Gibbous, 87% of the Moon is Illuminated
Oct 11
Waning Gibbous
Oct 15
Last Quarter
Oct 23
New
Oct 30
First Quarter
Nov 6
Full

Hourly Weather History & Observations

Time (CDT) Temp. Heat Index Dew Point Humidity Pressure Visibility Wind Dir Wind Speed Gust Speed Precip Events Conditions
12:53 AM 73.0 °F - 71.1 °F 93% 29.96 in 8.0 mi SSW 8.1 mph - N/A   Clear
1:53 AM 72.0 °F - 71.1 °F 97% 29.96 in 7.0 mi South 5.8 mph - N/A   Clear
2:53 AM 73.0 °F - 71.1 °F 93% 29.96 in 8.0 mi South 5.8 mph - N/A   Clear
3:53 AM 72.0 °F - 71.1 °F 97% 29.96 in 7.0 mi South 4.6 mph - N/A   Clear
4:15 AM 72.0 °F - 71.1 °F 97% 29.95 in 7.0 mi South 3.5 mph - N/A   Partly Cloudy
4:28 AM 71.1 °F - 70.0 °F 96% 29.96 in 1.8 mi Calm Calm - N/A   Partly Cloudy
4:35 AM 70.0 °F - 70.0 °F 100% 29.96 in 0.5 mi Calm Calm - N/A Fog Fog
4:48 AM 71.6 °F - 69.8 °F 94% 29.96 in 1.0 mi Calm Calm - N/A   Mostly Cloudy
4:53 AM 71.1 °F - 70.0 °F 96% 29.97 in 2.5 mi SSE 3.5 mph - N/A   Overcast
5:01 AM 71.1 °F - 71.1 °F 100% 29.96 in 5.0 mi SSE 3.5 mph - N/A   Overcast
5:51 AM 71.6 °F - 71.6 °F 100% 29.97 in 6.0 mi Calm Calm - N/A   Overcast
5:53 AM 72.0 °F - 71.1 °F 97% 29.98 in 6.0 mi Calm Calm - N/A   Overcast
6:53 AM 72.0 °F - 72.0 °F 100% 30.00 in 4.0 mi South 4.6 mph - N/A   Overcast
7:08 AM 72.0 °F - 71.1 °F 97% 29.99 in 1.0 mi SE 4.6 mph - N/A   Overcast
7:53 AM 73.0 °F - 72.0 °F 96% 30.02 in 1.0 mi Calm Calm - N/A   Overcast
7:58 AM 73.0 °F - 72.0 °F 96% 30.01 in 3.0 mi NNW 3.5 mph - N/A   Overcast
8:19 AM 73.9 °F - 73.0 °F 97% 30.02 in 5.0 mi NNW 3.5 mph - N/A   Overcast
8:26 AM 73.9 °F - 73.0 °F 97% 30.02 in 5.0 mi NNW 4.6 mph - N/A   Overcast
8:53 AM 75.9 °F - 73.0 °F 91% 30.03 in 6.0 mi North 5.8 mph - N/A   Overcast
9:00 AM 75.9 °F - 73.0 °F 91% 30.03 in 6.0 mi NNW 4.6 mph - N/A   Mostly Cloudy
9:24 AM 77.0 °F - 73.0 °F 88% 30.02 in 7.0 mi Variable 3.5 mph - N/A   Scattered Clouds
9:45 AM 79.0 °F - 72.0 °F 79% 30.02 in 8.0 mi NW 4.6 mph - N/A   Mostly Cloudy
9:53 AM 79.0 °F - 73.0 °F 82% 30.03 in 8.0 mi NW 5.8 mph - N/A   Mostly Cloudy
10:15 AM 79.0 °F - 73.0 °F 82% 30.02 in 8.0 mi West 3.5 mph - N/A   Mostly Cloudy
10:28 AM 80.1 °F 83.8 °F 72.0 °F 76% 30.02 in 8.0 mi Calm Calm - N/A   Partly Cloudy
10:53 AM 81.0 °F 85.2 °F 72.0 °F 74% 30.02 in 9.0 mi SW 6.9 mph - N/A   Clear
11:27 AM 84.0 °F 89.0 °F 71.1 °F 65% 30.01 in 10.0 mi Calm Calm - N/A   Mostly Cloudy
11:49 AM 84.2 °F 88.4 °F 69.8 °F 62% 30.00 in 10.0 mi Calm Calm - N/A   Scattered Clouds
11:53 AM 84.9 °F 89.4 °F 70.0 °F 61% 30.01 in 10.0 mi SSW 5.8 mph - N/A   Partly Cloudy
12:53 PM 84.9 °F 88.2 °F 68.0 °F 57% 29.99 in 10.0 mi West 5.8 mph - N/A   Mostly Cloudy
1:53 PM 88.0 °F 90.3 °F 66.0 °F 48% 29.96 in 10.0 mi Variable 4.6 mph - N/A   Scattered Clouds
2:08 PM 87.1 °F 89.2 °F 66.0 °F 49% 29.94 in 10.0 mi South 5.8 mph - N/A Thunderstorm Scattered Clouds
2:30 PM 77.0 °F - 68.0 °F 74% 29.96 in 10.0 mi NW 19.6 mph 26.5 mph N/A Thunderstorm Thunderstorm
2:41 PM 73.0 °F - 68.0 °F 84% 29.97 in 1.5 mi West 24.2 mph 29.9 mph 0.12 in Rain , Thunderstorm Heavy Thunderstorms and Rain
2:46 PM 71.1 °F - 69.1 °F 93% 29.97 in 0.2 mi West 18.4 mph 29.9 mph 0.46 in Fog , Rain , Thunderstorm Heavy Thunderstorms and Rain
2:49 PM 71.6 °F - 68.0 °F 88% 29.99 in 0.2 mi West 12.7 mph 28.8 mph 0.66 in Fog , Rain , Thunderstorm Heavy Rain
2:53 PM 71.1 °F - 68.0 °F 90% 29.99 in 0.2 mi West 8.1 mph 24.2 mph 0.93 in Fog , Rain , Thunderstorm Heavy Rain
3:04 PM 70.0 °F - 69.1 °F 97% 29.97 in 0.5 mi NE 3.5 mph - 0.21 in Fog , Rain , Thunderstorm Heavy Rain
3:09 PM 71.1 °F - 69.1 °F 93% 29.97 in 1.2 mi ENE 4.6 mph - 0.21 in Rain , Thunderstorm Light Rain
3:11 PM 71.1 °F - 70.0 °F 96% 29.97 in 3.0 mi NE 8.1 mph - 0.21 in Rain Light Rain
3:21 PM 73.0 °F - 70.0 °F 90% 29.98 in 10.0 mi Variable 3.5 mph - 0.21 in Rain Light Rain
3:53 PM 75.9 °F - 71.1 °F 85% 29.97 in 10.0 mi North 5.8 mph - 0.21 in   Overcast
4:53 PM 79.0 °F - 70.0 °F 74% 29.94 in 10.0 mi Calm Calm - N/A   Clear
5:53 PM 78.1 °F - 70.0 °F 76% 29.96 in 10.0 mi Calm Calm - N/A   Clear
6:53 PM 75.9 °F - 73.0 °F 91% 29.96 in 10.0 mi Calm Calm - N/A   Partly Cloudy
7:53 PM 73.0 °F - 71.1 °F 93% 29.97 in 10.0 mi SSE 3.5 mph - N/A   Clear
8:53 PM 73.0 °F - 71.1 °F 93% 29.98 in 10.0 mi Calm Calm - N/A   Mostly Cloudy
9:53 PM 73.0 °F - 71.1 °F 93% 29.99 in 9.0 mi Calm Calm - N/A   Partly Cloudy
10:53 PM 72.0 °F - 71.1 °F 97% 29.99 in 7.0 mi NW 4.6 mph - N/A   Partly Cloudy
11:53 PM 71.1 °F - 70.0 °F 96% 29.99 in 9.0 mi NNW 5.8 mph - N/A   Mostly Cloudy